Tracking 19485 objects as of 21-Jan-2019
HD Live streaming from Space Station
objects crossing your sky now

IRIDIUM 59

Track IRIDIUM 59 now!
10-day predictions
IRIDIUM 59 is classified as:


NORAD ID: 25275
Int'l Code: 1998-019D
Perigee: 783.3 km
Apogee: 786.3 km
Inclination: 86.4 °
Period: 100.4 minutes
Semi major axis: 7155 km
RCS: 4.0396 m2 (large)
Launch date: March 30, 1998
Source: United States (US)
Launch site: AIR FORCE WESTERN TEST RANGE (AFWTR)
aabbcc
Your satellite tracking list
Your tracking list is empty




NASA's NSSDC Master Catalog

Two Line Element Set (TLE):
1 25275U 98019D   19019.62682764 +.00000056 +00000-0 +12877-4 0  9999
2 25275 086.3940 044.3390 0002130 087.1272 273.0167 14.34219408089480
Source of the keplerian elements: AFSPC